Preview of NWS' New Version of Forecast
This preview is not operational and should not be used for support decisions.

Regional Weather Roundup (RWR)

Issued by National Weather Service (NWS)

                            
000
ASUS46 KPQR 251710
RWROR 

OREGON REGIONAL WEATHER ROUNDUP
NATIONAL WEATHER SERVICE PORTLAND OR
1000 AM PDT SUN AUG 25 2019

NOTE: "FAIR" INDICATES FEW OR NO CLOUDS BELOW 12,000 FEET WITH
NO SIGNIFICANT WEATHER AND/OR OBSTRUCTIONS TO VISIBILITY.

ORZ001>013-251800-
NORTHWEST OREGON

  
CITY           SKY/WX    TMP DP  RH WIND       PRES   REMARKS
ASTORIA        CLOUDY    62  56  80 N3        30.19R                  
TILLAMOOK      SUNNY     61  54  77 NW3       30.21R                  
NEWPORT        SUNNY     63  54  72 N5        30.21R                  
FLORENCE       FAIR      64  52  63 NW7       30.15S                  
PORTLAND       MOSUNNY   65  51  60 W6        30.18S                  
VANCOUVER WA   SUNNY     65  51  60 VRB6      30.18S                  
SCAPPOOSE      PTSUNNY   66  51  58 VRB5      30.17S                  
HILLSBORO      SUNNY     67  50  54 NW8       30.18S                  
AURORA         MOSUNNY   66  49  54 VRB5      30.19S                  
MCMINNVILLE    SUNNY     68  50  52 NE13      30.18S                  
SALEM          MOSUNNY   67  50  54 NE9       30.17S                  
CORVALLIS      SUNNY     67  50  54 N14G22    30.18S                  
EUGENE         MOSUNNY   68  53  58 N14       30.17R                  
CRESWELL       CLOUDY    66  55  68 CALM      30.15S                  
$$

ORZ021-028-251800-
SOUTHWEST OREGON

  
CITY           SKY/WX    TMP DP  RH WIND       PRES   REMARKS
NORTH BEND     SUNNY     67  57  70 N12       30.15S                  
BROOKINGS      SUNNY     62  57  83 SW3       30.05F                  
ROSEBURG       PTSUNNY   67  56  67 CALM      30.13S                  
SEXTON SUMMIT  SUNNY     65  54  67 E3        30.18R                  
GRANTS PASS    FAIR      70  55  60 NW3       30.14S                  
MEDFORD        SUNNY     70  52  52 VRB3      30.10S                  
$$

ORZ014>016-041-251800-
COLUMBIA GORGE

  
CITY           SKY/WX    TMP DP  RH WIND       PRES   REMARKS
TROUTDALE      PTSUNNY   64  52  64 W3        30.18S                  
HOOD RIVER     SUNNY     64  50  59 NW17G26   30.11F                  
THE DALLES     SUNNY     72  49  44 W21       30.07R                  
$$

ORZ029>031-041-044-049-050-061>064-502-503-505>511-251800-
EASTERN OREGON

  
CITY           SKY/WX    TMP DP  RH WIND       PRES   REMARKS
MADRAS         SUNNY     68  50  52 CALM      30.14S                  
REDMOND        SUNNY     70  44  39 VRB5      30.13S                  
BEND           SUNNY     70  45  40 CALM      30.14S                  
PRINEVILLE     SUNNY     64  48  55 VRB5      30.14S                  
KLAMATH FALLS  SUNNY     71  45  39 VRB3      30.17S                  
LAKEVIEW       SUNNY     72  47  40 S7        30.20S                  
HERMISTON      SUNNY     73  52  47 SW12      30.05S                  
PENDLETON      SUNNY     70  48  45 W17G23    30.07R                  
JOHN DAY       SUNNY     67  47  48 W6        30.14S                  
MEACHAM        PTSUNNY   60  46  59 CALM      30.14R                  
LA GRANDE      MOSUNNY   68  49  50 NW10      30.11R                  
BAKER CITY     SUNNY     69  47  45 NW12      30.11R                  
BURNS          SUNNY     72  33  24 NW13      30.14F                  
ROME             N/A     81  36  19 NW8G21    30.09F                  
ONTARIO        SUNNY     78  42  27 NW13      30.04S                  
$$